#timestamp,LO_Frequency,Hit,StdDev 
1659985215.8,286047000.1,N
1659985235.6,286046999.7,N
1659985255.5,286047000.1,N
1659985275.3,286047004.3,N
1659985295.1,286047001.6,N
1659985315.9,286047001.5,N
1659985335.7,286047001.4,N
1659985355.6,286047003.5,N
1659985375.4,286047001.7,N
1659985395.2,286047001.4,N
1659985415.1,286047002.1,N
1659985416.0,286047002.1,N
1659985435.8,286047001.3,N
1659985455.7,286047001.7,N
1659985475.5,286047002.1,N
1659985495.3,286047004.2,N
1659985515.2,286047001.5,N
1659985535.0,286047006.0,Y
1659985535.9,286047006.0,P
1659985555.8,286047001.5,N
1659985575.6,286047001.1,N
1659985595.4,286047000.3,N
1659985615.3,286047001.9,N
1659985635.1,286047003.5,N
1659985655.8,286047004.1,N
1659985675.7,286047005.8,Y
1659985695.5,286047004.3,P
1659985715.4,286047001.6,N
1659985735.2,286047004.3,P
1659985755.0,286047001.8,N
1659985755.9,286047001.8,N
1659985775.8,286047001.3,N
1659985795.6,286047002.2,N
1659985815.5,286047001.7,N
1659985835.3,286047003.7,Y
1659985855.1,286046999.9,P
1659985875.9,286046999.9,N
1659985895.7,286047000.8,N
1659985915.5,286046998.8,N
1659985935.4,286046998.9,N
1659985955.2,286046998.1,N
1659985975.1,286046998.8,N
1659985976.0,286046998.8,N
1659985995.8,286047000.0,N
1659986015.6,286047002.5,N
1659986035.5,286047004.1,N
1659986055.3,286047006.0,Y
1659986075.1,286047003.2,P
1659986095.9,286047003.7,N
1659986115.7,286047004.3,N
1659986135.6,286047004.2,N
1659986155.4,286047003.2,N
1659986175.2,286047005.9,Y
1659986195.1,286046999.7,P
1659986196.0,286046999.7,N
1659986215.8,286047002.1,N
1659986235.6,286047011.9,Y
1659986255.5,286046997.1,P
1659986275.3,286046997.4,N
1659986295.2,286046996.7,N
1659986315.9,286046998.7,N
1659986335.7,286046998.3,N
1659986355.6,286047000.5,N
1659986375.4,286046996.8,N
1659986395.2,286046996.1,N
1659986415.1,286046991.7,Y
1659986416.0,286046991.7,P
1659986435.8,286046993.3,N
1659986455.7,286046993.4,N
1659986475.5,286046996.4,N
1659986495.3,286046997.3,N
1659986515.2,286046995.5,N
1659986535.0,286046996.9,N
1659986535.9,286046996.9,N
1659986555.8,286046999.8,N
1659986575.6,286047001.2,N
1659986595.4,286047000.5,N
1659986615.3,286046998.5,N
1659986635.1,286047000.7,N
1659986636.0,286047000.7,N
1659986655.8,286046998.4,N
1659986675.7,286046998.8,N
1659986695.5,286047002.3,N
1659986715.3,286047002.8,N
1659986735.2,286047002.4,N
1659986755.0,286047000.3,N
1659986755.9,286047000.3,N
1659986775.8,286047002.8,N
1659986795.6,286047002.3,N
1659986815.4,286047004.4,N
1659986835.3,286047002.9,N
1659986855.1,286047001.9,N
1659986875.8,286047004.2,N
1659986895.7,286047005.7,N
1659986915.5,286047003.3,N
1659986935.4,286047002.8,N
1659986955.2,286047000.3,N
1659986975.0,286047001.1,N
1659986975.9,286047001.1,N
1659986995.8,286047000.2,N
1659987015.6,286047002.6,N
1659987035.5,286047000.6,N
1659987055.3,286046999.8,N
1659987075.1,286047004.0,N
1659987095.9,286047006.0,Y
1659987115.7,286047001.6,P
1659987135.5,286047002.1,P
1659987155.4,286047004.0,P
1659987175.2,286047000.0,N
1659987195.1,286047004.3,Y
1659987196.0,286047004.3,P
1659987215.8,286047002.7,N
1659987235.6,286046998.3,N
1659987255.5,286046998.5,N
1659987275.3,286047000.3,N
1659987295.1,286046999.7,N
1659987315.9,286047002.6,N
1659987335.7,286046999.9,N
1659987355.6,286047000.7,N
1659987375.4,286046998.5,N
1659987395.2,286047000.2,N
1659987415.1,286046998.4,N
1659987416.0,286046998.4,N
1659987435.8,286047000.5,N
1659987455.6,286046998.1,N
1659987475.5,286046998.2,N
1659987495.3,286046999.9,N
1659987515.2,286046999.7,N
1659987535.9,286047002.5,N
1659987555.7,286047004.4,N
1659987575.6,286047000.2,N
1659987595.4,286046998.2,N
1659987615.2,286046999.3,N
1659987635.1,286046998.9,N
1659987636.0,286046998.9,N
1659987655.8,286047000.8,N
1659987675.7,286047001.0,N
1659987695.5,286046998.5,N
1659987715.3,286046998.8,N
1659987735.2,286047000.5,N
1659987755.0,286047002.1,N
1659987755.9,286047002.1,N
1659987775.7,286047003.8,N
1659987795.6,286047002.3,N
1659987815.4,286047002.4,N
1659987835.3,286047002.5,N
1659987855.1,286047002.4,N
1659987856.0,286047002.4,N
1659987875.8,286047002.2,N
1659987895.7,286047002.0,N
1659987915.5,286047002.5,N
1659987935.3,286047004.3,N
1659987955.2,286047002.6,N
1659987975.0,286047001.4,N
1659987975.9,286047001.4,N
1659987995.8,286047003.9,N
1659988015.6,286047003.7,N
1659988035.4,286047011.8,Y
1659988055.3,286047011.8,P
1659988075.1,286047001.7,N
1659988095.9,286047005.9,N
1659988115.7,286047004.2,N
1659988135.5,286047001.6,N
1659988155.4,286047002.7,N
1659988175.2,286047004.2,N
1659988195.1,286047004.3,N
1659988196.0,286047004.3,N
1659988215.8,286047003.3,N
1659988235.6,286047005.7,N
1659988255.5,286047001.9,N
1659988275.3,286047004.0,N
1659988295.1,286047004.2,N
1659988315.9,286047003.4,N
1659988335.7,286047003.1,N
1659988355.6,286047005.0,N
1659988375.4,286047003.7,N
1659988395.2,286047005.3,N
1659988415.1,286047004.7,N
1659988416.0,286047004.7,N
1659988435.8,286047005.2,N
1659988455.6,286047005.9,N
1659988475.5,286047003.2,N
1659988495.3,286046996.8,N
1659988515.2,286047004.0,N
1659988535.9,286047002.3,N
1659988555.7,286047004.4,N
1659988575.6,286047003.0,N
1659988595.4,286047006.0,N
1659988615.2,286047003.1,N
1659988635.1,286047009.2,Y
1659988636.0,286047009.2,P
1659988655.8,286047003.0,N
1659988675.7,286047003.5,N
1659988695.5,286047003.3,N
1659988715.3,286047001.3,N
1659988735.2,286047001.6,N
1659988755.0,286047000.2,N
1659988755.9,286047000.2,N
1659988775.7,286046998.1,N
1659988795.6,286047001.2,N
